Fort Morgan, CO

1:56 PM MDT on July 28, 2016 (GMT -0600)
Fort Morgan | | Change Station

Elev 4334 ft 40.26 °N, 103.80 °W | Updated 20 seconds ago

Clear
Clear
76.3 °F
Feels Like 78 °F
N
0.0
Wind Variable Wind from ESE
Gusts 10.0 mph

Today
High -- | Low -- °F
--% Chance of Precip.
Yesterday
High -- | Low -- °F
Precip. -- in
Pressure 30.17 in
Visibility 10.0 miles
Clouds Clear
Heat Index 78 °F
Dew Point 61 °F
Humidity 59%
Rainfall 0.00 in
Snow Depth Not available.
5:49 AM 8:13 PM
Waning Crescent, 29% visible
METAR KFMM 281935Z AUTO 07017G21KT 10SM CLR 25/14 A3017 RMK AO2 T02520135
Pressure 30.17 in
Visibility 10.0 miles
Clouds Clear
Heat Index 78 °F
Dew Point 61 °F
Humidity 59%
Rainfall 0.00 in
Snow Depth Not available.
5:49 AM 8:13 PM
Waning Crescent, 29% visible
METAR KFMM 281935Z AUTO 07017G21KT 10SM CLR 25/14 A3017 RMK AO2 T02520135

10-Day Weather Forecast

Almanac

Astronomy

Jul. 28, 2016 Rise Set
Actual Time
Civil Twilight
Nautical Twilight
Astronomical Twilight
Moon
Length of Visible Light
Length of Day
Tomorrow will be .
, % of the Moon is Illuminated

Today's Extremes

State Highs State Lows

Community

WunderPhotos

Upload Photos

1,928,194 photos uploaded!

WunderBlog® & News

Nearby

Air Quality

  Air Quality AQ Index Pollutant
Not available.

Snow Depth

Station Depth Elevation

Earthquake Activity

City Distance Mag. Time & Date
Minimum magnitude displayed is 2.5.

Coastal Water Temperatures

Place Temperature

Stations

Nearby Weather Stations

Station Location Temp. Windchill Dew Point Humidity Wind Precip. Elev Updated Type
                   

Watches & Warnings

There are currently no watches in effect.